Bluefield, WV

8:33 AM EST on December 08, 2019 (GMT -0500)
Mercer County

Weather History for KBLF - November, 2019

Change the Weather History Date:

Wednesday, November 13, 2019

  Actual Average Record
Temperature  
Mean Temperature 20 °F 48 °F  
Max Temperature 34 °F 57 °F 77 °F (1938)
Min Temperature 6 °F 40 °F 6 °F (2019)
Degree Days  
Heating Degree Days 45 17  
Month to date heating degree days 334 195  
Since 1 July heating degree days 647 559  
Cooling Degree Days 0 0  
Month to date cooling degree days 0 0  
Year to date cooling degree days 748 851  
Moisture  
Dew Point 8 °F    
Average Humidity 60    
Maximum Humidity 84    
Minimum Humidity 36    
Precipitation  
Precipitation T in 0.08 in 0.96 in (1935)
Month to date precipitation 0.35 1.11  
Year to date precipitation 35.15 35.14  
Snow  
Snow T in - - ()
Month to date snowfall 1.2  
Since 1 July snowfall 1.2  
Since 1 September snowfall 1.2  
Snow Depth T in    
Sea Level Pressure  
Sea Level Pressure 30.33 in    
Wind  
Wind Speed 4 mph (ESE)    
Max Wind Speed 10 mph    
Max Gust Speed 15 mph    
Visibility 9 miles    
Events Snow    
T = Trace of Precipitation, MM = Missing Value Source: NWS Daily Summary

Daily Weather History Graph

Daily Weather History Graph

Search for Another Location

Airport or City:

Astronomy

Nov. 13, 2019 Rise Set
Actual Time 7:01 AM EST 5:16 PM EST
Civil Twilight 6:33 AM EST 5:43 PM EST
Nautical Twilight 6:02 AM EST 6:15 PM EST
Astronomical Twilight 5:31 AM EST 6:45 PM EST
Moon 6:19 PM EST (11/13) 7:53 AM EST (11/13)
Length of Visible Light 11h 09m
Length of Day
10h 14m
Full, 99% of the Moon is Illuminated
Nov 13
Full
Nov 19
Last Quarter
Nov 26
New
Dec 4
First Quarter
Dec 12
Full

Hourly Weather History & Observations

Time (EST) Temp. Windchill Dew Point Humidity Pressure Visibility Wind Dir Wind Speed Gust Speed Precip Events Conditions
12:06 AM 12.9 °F 6.9 °F 9.0 °F 84% 30.21 in 5.0 mi Variable 3.5 mph - 0.00 in Snow Light Snow
12:52 AM 12.9 °F 2.6 °F 6.1 °F 74% 30.34 in 3.0 mi NNW 6.9 mph - 0.00 in Snow Light Snow
1:52 AM 12.0 °F 2.7 °F 7.0 °F 80% 30.35 in 10.0 mi NW 5.8 mph - 0.00 in   Overcast
2:52 AM 12.0 °F 5.9 °F 7.0 °F 80% 30.35 in 7.0 mi North 3.5 mph - 0.00 in Snow Light Snow
3:52 AM 10.9 °F - 6.1 °F 81% 30.36 in 10.0 mi Calm Calm - 0.00 in   Overcast
4:28 AM 10.0 °F - 5.0 °F 80% 30.25 in 10.0 mi Calm Calm - N/A   Partly Cloudy
4:52 AM 10.0 °F - 5.0 °F 80% 30.39 in 10.0 mi Calm Calm - N/A   Mostly Cloudy
5:11 AM 9.0 °F - 5.0 °F 84% 30.25 in 10.0 mi Calm Calm - N/A   Scattered Clouds
5:52 AM 9.0 °F - 5.0 °F 84% 30.38 in 10.0 mi Calm Calm - N/A   Clear
6:52 AM 8.1 °F - 5.0 °F 87% 30.39 in 10.0 mi Calm Calm - N/A   Clear
7:52 AM 10.9 °F 4.7 °F 6.1 °F 81% 30.41 in 10.0 mi North 3.5 mph - N/A   Clear
8:52 AM 12.9 °F - 8.1 °F 81% 30.41 in 10.0 mi Calm Calm - N/A   Clear
9:52 AM 16.0 °F 6.3 °F 7.0 °F 68% 30.40 in 10.0 mi Variable 6.9 mph - N/A   Clear
10:52 AM 21.0 °F 11.4 °F 8.1 °F 57% 30.39 in 10.0 mi East 8.1 mph - N/A   Clear
11:52 AM 25.0 °F 18.1 °F 9.0 °F 51% 30.38 in 10.0 mi Variable 5.8 mph - N/A   Clear
12:52 PM 28.0 °F 20.0 °F 10.9 °F 49% 30.34 in 10.0 mi ESE 8.1 mph - N/A   Clear
1:52 PM 30.9 °F 27.5 °F 12.0 °F 46% 30.32 in 10.0 mi Variable 3.5 mph - N/A   Clear
2:52 PM 34.0 °F 31.0 °F 12.0 °F 40% 30.29 in 10.0 mi Variable 3.5 mph - N/A   Clear
3:52 PM 34.0 °F 28.8 °F 10.0 °F 37% 30.30 in 10.0 mi SSE 5.8 mph - N/A   Clear
4:52 PM 32.0 °F 26.4 °F 8.1 °F 37% 30.30 in 10.0 mi SSE 5.8 mph - N/A   Clear
5:52 PM 30.0 °F 24.1 °F 8.1 °F 40% 30.30 in 10.0 mi SSE 5.8 mph - N/A   Clear
6:52 PM 30.0 °F 25.2 °F 8.1 °F 40% 30.33 in 10.0 mi SE 4.6 mph - N/A   Clear
7:52 PM 28.9 °F 22.8 °F 8.1 °F 41% 30.34 in 10.0 mi ESE 5.8 mph - N/A   Clear
8:52 PM 28.0 °F 21.7 °F 8.1 °F 43% 30.32 in 10.0 mi ESE 5.8 mph - N/A   Clear
9:52 PM 27.0 °F 23.0 °F 8.1 °F 45% 30.32 in 10.0 mi East 3.5 mph - N/A   Clear
10:52 PM 26.1 °F 19.4 °F 8.1 °F 47% 30.32 in 10.0 mi SE 5.8 mph - N/A   Clear
11:52 PM 25.0 °F 20.7 °F 8.1 °F 49% 30.30 in 10.0 mi Variable 3.5 mph - N/A   Clear